Кемпендяй

Россия / Республика Саха (Якутия)     62°01′23″N   118°37′36″E
темп.,
°C
ветер,
м/с
пор.,
м/с
влажн.,
%
обл.,
%
осадки,
мм/ч
давл.,
гПа
погр.,
м
27 февраля, сб
сб2700:00−26вюв229650 0.0 102419
03:00−28вюв129947 0.0 102319
06:00−28св119998 0.0 102419
09:00−27ююв019899 0.0 102319
12:00−24зсз3597100 0.1 1023324
15:00−24зсз3797100 0.7 1022452
18:00−24зсз3897100 0.4 1024534
21:00−25зсз31196100 0.7 1025570
28 февраля, вс
вс2800:00−25зсз41095100 0.1 1026618
03:00−27зсз4997100 0.1 1027417
06:00−30з3997100 0.0 1028273
09:00−32зюз31098100 0.0 1029264
12:00−28з4895100 0.0 1030411
15:00−25з4889100 0.0 1030806
18:00−26зюз3793100 0.0 1031238
21:00−30зюз239599 0.0 103248
1 марта, пн
пн100:00−33зюз22973 0.0 103319
03:00−34зюз22981 0.0 103319
06:00−36юз2210016 0.0 103319
09:00−35юз229940 0.0 103320
12:00−28зюз249564 0.0 1032306
15:00−25зюз249178 0.0 1030592
18:00−28зюз1196100 0.0 103019
21:00−33ю1110087 0.0 102919
2 марта, вт
вт200:00−34ююв1110060 0.0 102919
03:00−36вюв1110059 0.0 102819
06:00−36в1110052 0.0 102819
09:00−36в119844 0.0 102719
12:00−28всв239163 0.0 1026291
15:00−26всв239081 0.0 1025488
18:00−28св239498 0.0 102530
21:00−33св229780 0.0 102620
3 марта, ср
ср300:00−35св229764 0.0 102619
03:00−36св229764 0.0 102619
06:00−38ссв129854 0.0 102718
09:00−38с129747 0.0 102818
12:00−31с239132 0.0 1027341
15:00−29сз239266 0.0 1026475
18:00−31сз2496100 0.0 1026113
21:00−36сз229991 0.0 102719